"Pseudo-MPEC" for JNS008

Created 2018 May 23 1:18:05 UT using Find_Orb

Click here for an explanation of pseudo-MPECs

 
 Astrometry: 
     JNS008   C2018 05 15!cAstrometry=i0hgredacted;@W7[Sn(w%EGSov-XdVvbEc.?RbQ66
     JNS008   C2018 05 15t8s1sLYIw[%v(3k%@ICQy+vI*uU]);0nseeh\Nj_KeH.x9gNEOCPQ66

Station data:
(Q66) Siding Spring-Janess-G, JAXA  (S31.273299 E149.064250)  Australia/NSW.

Orbital elements:  JNS008
   Perigee 2018 May 15.577961 +/- 38 TT = 13:52:15 (JD 2458254.077961)
Epoch 2018 May 16.0 TT = JDT 2458254.5                        AutoNEOCP
q195580.448 +/- 2.42e+7             (J2000 equator)
H   31.5  G 0.15                    Peri.  327.47711 +/- 54
                                    Node   267.33732 +/- 60
e   1.0011771 +/- 0.245             Incl.   25.05565 +/- 3.3
From 2 observations 2018 May 15 (60.5 sec); mean residual 0".00
Residuals in arcseconds: 
180515 Q66  .00   .00     180515 Q66  .00   .00     

Ephemerides (geocentric):
Date (UTC) HH   RA              Dec         delta   r     elong  mag " sig PA
---- -- -- --  ------------   ------------  ------ ------ -----  --- ---- ---
2018 05 23 01  23 33 01.283   +24 52 05.39  757361 1.0099  60.7 24.8  59d 172
2018 05 23 02  23 33 38.710   +24 52 15.77  760521 1.0099  60.6 24.9  59d 172
2018 05 23 03  23 34 15.838   +24 52 25.44  763677 1.0099  60.5 24.9  59d 172
2018 05 23 04  23 34 52.671   +24 52 34.42  766828 1.0099  60.4 24.9  59d 172
2018 05 23 05  23 35 29.212   +24 52 42.74  769976 1.0099  60.3 24.9  59d 172
2018 05 23 06  23 36 05.466   +24 52 50.40  773119 1.0099  60.2 24.9  59d 172
2018 05 23 07  23 36 41.436   +24 52 57.41  776259 1.0099  60.1 24.9  59d 172
2018 05 23 08  23 37 17.126   +24 53 03.80  779394 1.0099  60.0 25.0  59d 172
2018 05 23 09  23 37 52.541   +24 53 09.58  782526 1.0098  59.9 25.0  59d 172
2018 05 23 10  23 38 27.683   +24 53 14.76  785654 1.0098  59.8 25.0  59d 172
2018 05 23 11  23 39 02.556   +24 53 19.35  788777 1.0098  59.7 25??  60d 172
2018 05 23 12  23 39 37.165   +24 53 23.37  791897 1.0098  59.6 25??  61d 173
2018 05 23 13  23 40 11.511   +24 53 26.83  795013 1.0098  59.5 25??  60d 171
2018 05 23 14  23 40 45.599   +24 53 29.74  798125 1.0098  59.4 25??  60d 171
2018 05 23 15  23 41 19.432   +24 53 32.11  801233 1.0098  59.3 25??  60d 171
2018 05 23 16  23 41 53.014   +24 53 33.97  804337 1.0098  59.2 25??  60d 171
2018 05 23 17  23 42 26.347   +24 53 35.30  807437 1.0098  59.2 25??  60d 171
2018 05 23 18  23 42 59.436   +24 53 36.14  810534 1.0098  59.1 25??  60d 171
2018 05 23 19  23 43 32.282   +24 53 36.49  813627 1.0097  59.0 25??  59d 171
2018 05 23 20  23 44 04.889   +24 53 36.36  816716 1.0097  58.9 25??  59d 171
2018 05 23 21  23 44 37.260   +24 53 35.77  819801 1.0097  58.8 25??  59d 171
2018 05 23 22  23 45 09.399   +24 53 34.71  822882 1.0097  58.7 25??  59d 171
2018 05 23 23  23 45 41.307   +24 53 33.21  825960 1.0097  58.6 25??  59d 171
2018 05 24 00  23 46 12.989   +24 53 31.27  829034 1.0097  58.6 25??  59d 171
2018 05 24 01  23 46 44.446   +24 53 28.90  832105 1.0097  58.5 25??  59d 171
2018 05 24 02  23 47 15.681   +24 53 26.11  835172 1.0097  58.4 25??  59d 171
2018 05 24 03  23 47 46.698   +24 53 22.91  838235 1.0097  58.3 25??  59d 171
2018 05 24 04  23 48 17.500   +24 53 19.31  841295 1.0097  58.2 25??  59d 171
2018 05 24 05  23 48 48.087   +24 53 15.32  844351 1.0096  58.2 25??  59d 171
2018 05 24 06  23 49 18.464   +24 53 10.95  847403 1.0096  58.1 25??  59d 171
2018 05 24 07  23 49 48.633   +24 53 06.20  850452 1.0096  58.0 25??  59d 171
2018 05 24 08  23 50 18.596   +24 53 01.08  853498 1.0096  57.9 25??  59d 171
2018 05 24 09  23 50 48.357   +24 52 55.61  856540 1.0096  57.9 25??  59d 171
2018 05 24 10  23 51 17.916   +24 52 49.78  859578 1.0096  57.8 25??  59d 171
2018 05 24 11  23 51 47.277   +24 52 43.62  862613 1.0096  57.7 25??  59d 171
2018 05 24 12  23 52 16.443   +24 52 37.11  865645 1.0096  57.6 25??  59d 171
2018 05 24 13  23 52 45.415   +24 52 30.28  868673 1.0096  57.6 25??  59d 171
2018 05 24 14  23 53 14.195   +24 52 23.13  871697 1.0096  57.5 25??  59d 171
2018 05 24 15  23 53 42.787   +24 52 15.66  874719 1.0095  57.4 25??  59d 171
2018 05 24 16  23 54 11.192   +24 52 07.89  877737 1.0095  57.3 25??  59d 172
2018 05 24 17  23 54 39.413   +24 51 59.81  880751 1.0095  57.3 25??  59d 172
2018 05 24 18  23 55 07.451   +24 51 51.45  883762 1.0095  57.2 25??  59d 172
2018 05 24 19  23 55 35.309   +24 51 42.79  886770 1.0095  57.1 25??  59d 172
2018 05 24 20  23 56 02.988   +24 51 33.86  889775 1.0095  57.1 25??  59d 172
2018 05 24 21  23 56 30.492   +24 51 24.65  892776 1.0095  57.0 25??  59d 172
2018 05 24 22  23 56 57.822   +24 51 15.17  895774 1.0095  56.9 25??  59d 172
2018 05 24 23  23 57 24.979   +24 51 05.43  898769 1.0095  56.9 25??  59d 172
2018 05 25 00  23 57 51.967   +24 50 55.44  901761 1.0095  56.8 25??  59d 172